ORBCOMM FM04

Last updated on Sun Jun 21 2026 00:03:16 GMT+0000 (Coordinated Universal Time)

1 25159U 98007C 26171.25108675 .00000599 00000+0 25068-3 0 9993 2 25159 107.9626 175.7253 0041441 319.5001 40.3058 14.35745966477039
UTC large
Height (km)
Speed (km/s)
/
Latitude / Longitude
Inclination (degrees)
Orbital Period (minutes)
Azimuth
Elevation
Range (km)
Doppler Factor

Next 0 passes for location: London (51.5072 / 0.1276)

No passes found over London.
ORBCOMM FM04